CAL7270 ROIG-ROAH

Flight info

Callsign CAL7270
Flight time 0h 38m
Altitude 21000
Route MJC Y57 VELNO
Aircraft A21N/M-SDE1E2E3FGHIJ1J3J4J7M3P2RWY/LB1D1

Departure

Time 2026-04-26 12:01
Airport New Ishigaki Airport (ROIG)

Arrival

Time 2026-04-26 12:39
Airport Naha International Airport (ROAH)
Time Latitude Longitude Altitude Speed Heading
2026-04-26 11:40 24.39178 124.24551 117 ft 0 kts 126°
2026-04-26 11:54 24.39185 124.24541 113 ft 4 kts 127°
2026-04-26 11:54 24.39202 124.24517 114 ft 4 kts 129°
2026-04-26 11:54 24.39220 124.24494 116 ft 4 kts 133°
2026-04-26 11:55 24.39239 124.24473 113 ft 4 kts 140°
2026-04-26 11:55 24.39260 124.24455 113 ft 4 kts 160°
2026-04-26 11:55 24.39281 124.24450 115 ft 2 kts 215°
2026-04-26 11:55 24.39285 124.24453 115 ft 0 kts 216°
2026-04-26 11:57 24.39265 124.24438 113 ft 7 kts 215°
2026-04-26 11:58 24.39213 124.24398 115 ft 11 kts 216°
2026-04-26 11:58 24.39140 124.24341 117 ft 14 kts 216°
2026-04-26 11:58 24.39050 124.24269 118 ft 17 kts 216°
2026-04-26 11:58 24.38946 124.24187 119 ft 19 kts 216°
2026-04-26 11:59 24.38886 124.24139 124 ft 12 kts 217°
2026-04-26 11:59 24.38849 124.24088 129 ft 6 kts 257°
2026-04-26 11:59 24.38855 124.24055 135 ft 3 kts 284°
2026-04-26 11:59 24.38863 124.24032 136 ft 4 kts 296°
2026-04-26 12:00 24.38893 124.23983 137 ft 10 kts 313°
2026-04-26 12:00 24.38967 124.23977 136 ft 13 kts 32°
2026-04-26 12:00 24.39163 124.24131 120 ft 74 kts 36°
2026-04-26 12:00 24.39819 124.24648 101 ft 151 kts 36°
2026-04-26 12:01 24.40756 124.25396 697 ft 165 kts 37°
2026-04-26 12:01 24.41656 124.26174 1679 ft 166 kts 50°
2026-04-26 12:01 24.42241 124.27300 2391 ft 179 kts 70°
2026-04-26 12:01 24.42618 124.28685 2854 ft 202 kts 73°
2026-04-26 12:02 24.43031 124.30288 2997 ft 231 kts 71°
2026-04-26 12:02 24.43375 124.31468 3002 ft 248 kts 70°
2026-04-26 12:02 24.44203 124.33967 3299 ft 264 kts 67°
2026-04-26 12:02 24.44872 124.35858 4278 ft 266 kts 66°
2026-04-26 12:03 24.45558 124.37770 5173 ft 274 kts 65°
2026-04-26 12:03 24.46278 124.39760 6049 ft 282 kts 65°
2026-04-26 12:03 24.47021 124.41812 6896 ft 289 kts 65°
2026-04-26 12:03 24.47772 124.43891 7763 ft 294 kts 65°
2026-04-26 12:04 24.48538 124.46015 8591 ft 299 kts 66°
2026-04-26 12:04 24.49333 124.48222 9427 ft 305 kts 66°
2026-04-26 12:04 24.50118 124.50410 10209 ft 311 kts 66°
2026-04-26 12:04 24.50650 124.51893 10475 ft 324 kts 66°
2026-04-26 12:05 24.51503 124.54267 10710 ft 347 kts 66°
2026-04-26 12:05 24.52412 124.56804 11100 ft 361 kts 66°
2026-04-26 12:05 24.53346 124.59421 11820 ft 365 kts 66°
2026-04-26 12:05 24.54278 124.62032 12564 ft 368 kts 66°
2026-04-26 12:06 24.55201 124.64623 13246 ft 372 kts 66°
2026-04-26 12:06 24.56167 124.67334 13953 ft 376 kts 66°
2026-04-26 12:06 24.57126 124.70025 14535 ft 381 kts 66°
2026-04-26 12:06 24.58096 124.72752 15098 ft 385 kts 66°
2026-04-26 12:07 24.59092 124.75552 15710 ft 390 kts 66°
2026-04-26 12:07 24.60080 124.78332 16286 ft 394 kts 66°
2026-04-26 12:07 24.61086 124.81169 16868 ft 398 kts 66°
2026-04-26 12:07 24.62011 124.83775 17385 ft 403 kts 65°
2026-04-26 12:08 24.63041 124.86679 17944 ft 407 kts 65°
2026-04-26 12:08 24.64083 124.89617 18485 ft 411 kts 65°
2026-04-26 12:08 24.65128 124.92566 18983 ft 416 kts 65°
2026-04-26 12:08 24.66164 124.95490 19464 ft 420 kts 65°
2026-04-26 12:09 24.67265 124.98599 19960 ft 424 kts 65°
2026-04-26 12:09 24.68338 125.01634 20428 ft 428 kts 65°
2026-04-26 12:09 24.69451 125.04782 20849 ft 433 kts 65°
2026-04-26 12:09 24.70555 125.07910 20983 ft 435 kts 65°
2026-04-26 12:10 24.71622 125.10942 20997 ft 435 kts 66°
2026-04-26 12:10 24.72725 125.14201 20995 ft 435 kts 66°
2026-04-26 12:10 24.73746 125.17289 20996 ft 435 kts 67°
2026-04-26 12:10 24.74792 125.20458 20995 ft 435 kts 67°
2026-04-26 12:11 24.75826 125.23580 20992 ft 435 kts 66°
2026-04-26 12:11 24.76882 125.26699 20992 ft 434 kts 64°
2026-04-26 12:11 24.78142 125.29758 20993 ft 432 kts 59°
2026-04-26 12:11 24.79598 125.32632 20993 ft 429 kts 54°
2026-04-26 12:12 24.81171 125.35378 20994 ft 429 kts 53°
2026-04-26 12:12 24.82799 125.38234 20992 ft 429 kts 54°
2026-04-26 12:12 24.84382 125.41025 20995 ft 429 kts 54°
2026-04-26 12:12 24.85447 125.42906 21001 ft 429 kts 54°
2026-04-26 12:13 24.87559 125.46637 21002 ft 429 kts 54°
2026-04-26 12:13 24.89148 125.49447 21009 ft 429 kts 54°
2026-04-26 12:13 24.90731 125.52246 21011 ft 430 kts 54°
2026-04-26 12:13 24.92313 125.55045 21015 ft 429 kts 54°
2026-04-26 12:14 24.93912 125.57875 21019 ft 430 kts 54°
2026-04-26 12:14 24.94980 125.59767 21017 ft 429 kts 54°
2026-04-26 12:14 24.96558 125.62562 21020 ft 430 kts 54°
2026-04-26 12:14 24.98159 125.65400 21023 ft 430 kts 54°
2026-04-26 12:15 24.99702 125.68138 21025 ft 430 kts 54°
2026-04-26 12:15 25.01315 125.71002 21023 ft 430 kts 54°
2026-04-26 12:15 25.02933 125.73874 21022 ft 430 kts 54°
2026-04-26 12:15 25.04527 125.76707 21020 ft 430 kts 54°
2026-04-26 12:16 25.06109 125.79520 21018 ft 430 kts 54°
2026-04-26 12:16 25.07672 125.82300 21016 ft 430 kts 54°
2026-04-26 12:16 25.09272 125.85149 21018 ft 430 kts 54°
2026-04-26 12:16 25.10866 125.87991 21019 ft 430 kts 54°
2026-04-26 12:17 25.12442 125.90799 21023 ft 430 kts 54°
2026-04-26 12:17 25.14081 125.93723 21018 ft 430 kts 54°
2026-04-26 12:17 25.15706 125.96623 21018 ft 430 kts 54°
2026-04-26 12:17 25.17365 125.99586 21020 ft 430 kts 54°
2026-04-26 12:18 25.18943 126.02405 21023 ft 431 kts 54°
2026-04-26 12:18 25.20543 126.05265 21023 ft 431 kts 54°
2026-04-26 12:18 25.22116 126.08079 21023 ft 431 kts 54°
2026-04-26 12:18 25.23692 126.10901 21023 ft 431 kts 54°
2026-04-26 12:19 25.25286 126.13755 21030 ft 431 kts 54°
2026-04-26 12:19 25.26847 126.16553 21016 ft 431 kts 54°
2026-04-26 12:19 25.28421 126.19375 21028 ft 431 kts 54°
2026-04-26 12:19 25.30019 126.22242 21029 ft 431 kts 54°
2026-04-26 12:20 25.31082 126.24150 21026 ft 431 kts 54°
2026-04-26 12:20 25.32677 126.27016 21030 ft 431 kts 54°
2026-04-26 12:20 25.34293 126.29920 21026 ft 431 kts 54°
2026-04-26 12:20 25.35867 126.32749 21022 ft 431 kts 54°
2026-04-26 12:21 25.37438 126.35576 21015 ft 431 kts 54°
2026-04-26 12:21 25.39011 126.38408 21033 ft 431 kts 54°
2026-04-26 12:21 25.40582 126.41239 21019 ft 431 kts 54°
2026-04-26 12:21 25.42157 126.44079 21016 ft 431 kts 54°
2026-04-26 12:22 25.43749 126.46949 21019 ft 431 kts 54°
2026-04-26 12:22 25.45338 126.49818 21028 ft 431 kts 54°
2026-04-26 12:22 25.46906 126.52650 21029 ft 431 kts 54°
2026-04-26 12:22 25.48478 126.55490 21017 ft 432 kts 54°
2026-04-26 12:23 25.50040 126.58325 20833 ft 430 kts 55°
2026-04-26 12:23 25.51603 126.61171 20305 ft 431 kts 55°
2026-04-26 12:23 25.53174 126.64031 19532 ft 434 kts 55°
2026-04-26 12:23 25.54739 126.66884 19006 ft 429 kts 55°
2026-04-26 12:24 25.56291 126.69719 18591 ft 420 kts 55°
2026-04-26 12:24 25.57796 126.72466 18094 ft 413 kts 55°
2026-04-26 12:24 25.59276 126.75166 17579 ft 406 kts 55°
2026-04-26 12:25 25.62174 126.80454 16636 ft 392 kts 55°
2026-04-26 12:25 25.63582 126.83025 16172 ft 386 kts 55°
2026-04-26 12:25 25.64963 126.85547 15727 ft 380 kts 56°
2026-04-26 12:25 25.66325 126.88038 15276 ft 375 kts 56°
2026-04-26 12:26 25.67672 126.90501 14828 ft 370 kts 56°
2026-04-26 12:26 25.68822 126.92605 14448 ft 366 kts 56°
2026-04-26 12:26 25.70139 126.95018 14193 ft 368 kts 56°
2026-04-26 12:26 25.71463 126.97443 14115 ft 367 kts 56°
2026-04-26 12:27 25.72821 126.99934 13690 ft 369 kts 56°
2026-04-26 12:27 25.74159 127.02387 12952 ft 374 kts 56°
2026-04-26 12:27 25.75510 127.04867 12315 ft 374 kts 56°
2026-04-26 12:27 25.76854 127.07342 11984 ft 364 kts 56°
2026-04-26 12:28 25.78165 127.09756 11736 ft 366 kts 56°
2026-04-26 12:28 25.79500 127.12210 11431 ft 366 kts 56°
2026-04-26 12:28 25.80829 127.14656 11008 ft 364 kts 56°
2026-04-26 12:28 25.82128 127.17051 10571 ft 359 kts 56°
2026-04-26 12:29 25.83427 127.19450 10388 ft 345 kts 56°
2026-04-26 12:29 25.84594 127.21606 10276 ft 331 kts 56°
2026-04-26 12:29 25.86519 127.25162 9988 ft 312 kts 56°
2026-04-26 12:30 25.87619 127.27194 9739 ft 306 kts 56°
2026-04-26 12:30 25.88720 127.29220 9363 ft 304 kts 56°
2026-04-26 12:30 25.89672 127.31314 9075 ft 304 kts 67°
2026-04-26 12:31 25.90809 127.35875 8230 ft 310 kts 74°
2026-04-26 12:31 25.91355 127.38226 7862 ft 306 kts 74°
2026-04-26 12:31 25.91887 127.40507 7525 ft 302 kts 74°
2026-04-26 12:31 25.92418 127.42779 7148 ft 298 kts 74°
2026-04-26 12:32 25.92945 127.45027 6790 ft 295 kts 74°
2026-04-26 12:32 25.93465 127.47251 6426 ft 292 kts 74°
2026-04-26 12:32 25.94478 127.51602 5704 ft 286 kts 74°
2026-04-26 12:33 25.94965 127.53702 5352 ft 282 kts 73°
2026-04-26 12:33 25.95453 127.55807 5025 ft 279 kts 73°
2026-04-26 12:33 25.95927 127.57855 4687 ft 276 kts 73°
2026-04-26 12:33 25.96075 127.60033 4345 ft 275 kts 95°
2026-04-26 12:34 25.95865 127.62134 4013 ft 270 kts 89°
2026-04-26 12:34 25.96294 127.64083 3701 ft 256 kts 53°
2026-04-26 12:34 25.97617 127.65321 3446 ft 239 kts 18°
2026-04-26 12:34 25.99208 127.65698 3224 ft 228 kts
2026-04-26 12:35 26.00863 127.65704 3142 ft 244 kts 356°
2026-04-26 12:35 26.02589 127.65602 3072 ft 246 kts 355°
2026-04-26 12:35 26.04296 127.65505 2717 ft 242 kts 355°
2026-04-26 12:35 26.05974 127.65407 2391 ft 241 kts 356°
2026-04-26 12:36 26.07641 127.65310 2062 ft 235 kts 356°
2026-04-26 12:36 26.09210 127.65217 1759 ft 217 kts 356°
2026-04-26 12:36 26.10648 127.65133 1501 ft 195 kts 356°
2026-04-26 12:36 26.11960 127.65055 1238 ft 177 kts 356°
2026-04-26 12:37 26.13122 127.64987 1020 ft 158 kts 356°
2026-04-26 12:37 26.14165 127.64925 813 ft 144 kts 355°
2026-04-26 12:37 26.15144 127.64841 594 ft 135 kts 355°
2026-04-26 12:37 26.16092 127.64781 470 ft 134 kts 356°
2026-04-26 12:38 26.17040 127.64715 325 ft 138 kts 357°
2026-04-26 12:38 26.18020 127.64662 122 ft 139 kts 356°
2026-04-26 12:38 26.18962 127.64616 18 ft 118 kts 357°
2026-04-26 12:38 26.19440 127.64591 16 ft 87 kts 358°
2026-04-26 12:39 26.19992 127.64566 16 ft 71 kts 357°
2026-04-26 12:39 26.20396 127.64546 19 ft 44 kts 356°
2026-04-26 12:39 26.20687 127.64531 19 ft 39 kts 359°
2026-04-26 12:39 26.20917 127.64536 17 ft 23 kts 18°
2026-04-26 12:40 26.20982 127.64623 16 ft 13 kts 80°
2026-04-26 12:40 26.20983 127.64725 18 ft 14 kts 89°
2026-04-26 12:40 26.21023 127.64802 19 ft 8 kts 11°
2026-04-26 12:40 26.21086 127.64786 19 ft 12 kts 346°
2026-04-26 12:41 26.21186 127.64759 19 ft 17 kts 347°
2026-04-26 12:41 26.21305 127.64741 20 ft 14 kts
2026-04-26 12:41 26.21319 127.64793 22 ft 8 kts 97°
2026-04-26 12:41 26.21291 127.64856 23 ft 10 kts 137°
2026-04-26 12:42 26.21213 127.64874 24 ft 13 kts 176°
2026-04-26 12:42 26.21184 127.64875 24 ft 2 kts 179°
2026-04-26 12:42 26.21152 127.64879 21 ft 6 kts 164°
2026-04-26 12:42 26.21147 127.64897 21 ft 1 kts 84°
2026-04-26 12:43 26.21150 127.64920 21 ft 5 kts 83°
2026-04-26 12:43 26.21151 127.64966 22 ft 7 kts 88°
2026-04-26 12:43 26.21151 127.64971 22 ft 0 kts 88°
2026-04-26 12:44 26.21152 127.64976 22 ft 0 kts 88°